Location: Newark
(53.6872°N, 9.6692°E)
Time: 06:17:47
(UTC+00:00)

Envisat - Visible Passes

Search period start: 22 September 2019 00:00
Search period end: 02 October 2019 00:00
Orbit: 764 x 766 km, 98.1° (Epoch: 21 September)

Date Brightness Start Highest point End Pass type
(mag) Time Alt. Az. Time Alt. Az. Time Alt. Az.
22 Sep 5.0 18:13:09 10° SSW 18:17:42 33° W 18:22:18 10° NNW visible
23 Sep 6.3 19:19:31 10° W 19:20:49 11° W 19:22:07 10° WNW visible
24 Sep 5.7 18:39:39 10° SW 18:43:29 21° W 18:47:21 10° NW visible
25 Sep 4.6 18:01:36 10° SSW 18:06:22 39° W 18:11:09 10° NNW visible
26 Sep 6.1 19:06:54 10° WSW 19:09:22 13° W 19:11:51 10° NW visible
27 Sep 5.4 18:27:55 10° SSW 18:32:06 25° W 18:36:19 10° NW visible
28 Sep 4.2 17:50:08 10° S 17:55:03 48° W 17:59:58 10° NNW visible
29 Sep 5.9 18:54:46 10° SW 18:57:56 16° W 19:01:07 10° NW visible
30 Sep 5.1 18:16:16 10° SSW 18:20:44 31° W 18:25:14 10° NNW visible
01 Oct 6.8 04:41:37 10° ENE 04:42:30 10° E 04:43:23 10° E visible
01 Oct 3.8 17:38:43 10° S 17:43:43 58° W 17:48:46 10° NNW visible
